When you browse on this site, cookies collect data to enhance your experience and personalize the content and advertising you see.
Visit our Privacy Policy to learn more. By continuing to use the site, you agree to this use of cookies and data.
  • In Hungary
  • List of Countries
  • For 7 days
  • Water Temperature
  • Satellite Maps
  • Weather Map
  • News
  • Weather Widgets
  • user-avatar
    Login

    Hourly Weather Karbinci

    Today, 14 December, Friday

    Time Temperature Precipitation Wind Pressure Humidity
    00:00 +1°C° 0 mm 1 mps 726 mmHg 80%
    01:00 +1°C° 0 mm 2 mps 726 mmHg 82%
    02:00 +1°C° 0.1 mm 2 mps 725 mmHg 84%
    03:00 +2°C° 0.1 mm 1 mps 725 mmHg 86%
    04:00 +2°C° 0.1 mm 1 mps 725 mmHg 87%
    05:00 +3°C° 0.1 mm 1 mps 725 mmHg 88%
    06:00 +3°C° 0.1 mm 1 mps 725 mmHg 88%
    07:00 +3°C° 0 mm 1 mps 725 mmHg 88%
    08:00 +4°C° 0.1 mm 1 mps 725 mmHg 84%
    09:00 +4°C° 0.1 mm 2 mps 726 mmHg 81%
    10:00 +5°C° 0.1 mm 2 mps 726 mmHg 77%
    11:00 +6°C° 0.1 mm 2 mps 726 mmHg 77%
    12:00 +7°C° 0.1 mm 3 mps 725 mmHg 76%
    13:00 +8°C° 0.1 mm 3 mps 725 mmHg 75%
    14:00 +7°C° 0 mm 3 mps 725 mmHg 80%
    15:00 +5°C° 0 mm 3 mps 725 mmHg 84%
    16:00 +4°C° 0 mm 3 mps 724 mmHg 88%
    17:00 +5°C° 0 mm 2 mps 725 mmHg 89%
    18:00 +5°C° 0 mm 2 mps 725 mmHg 91%
    19:00 +5°C° 0 mm 2 mps 725 mmHg 92%
    20:00 +5°C° 0 mm 2 mps 725 mmHg 92%
    21:00 +5°C° 0 mm 2 mps 725 mmHg 92%
    22:00 +5°C° 0 mm 2 mps 725 mmHg 93%
    23:00 +5°C° 0 mm 2 mps 725 mmHg 93%

    Tomorrow, 15 December, Saturday

    Time Temperature Precipitation Wind Pressure Humidity
    00:00 +5°C° 0 mm 2 mps 725 mmHg 93%
    01:00 +5°C° 0 mm 2 mps 725 mmHg 93%
    02:00 +5°C° 0 mm 2 mps 724 mmHg 93%
    03:00 +5°C° 0 mm 2 mps 724 mmHg 93%
    04:00 +5°C° 0 mm 2 mps 724 mmHg 93%
    05:00 +6°C° 0 mm 2 mps 724 mmHg 93%
    06:00 +6°C° 0 mm 2 mps 724 mmHg 93%
    07:00 +6°C° 0 mm 2 mps 724 mmHg 93%
    08:00 +6°C° 0.2 mm 2 mps 724 mmHg 90%
    09:00 +7°C° 0.2 mm 2 mps 724 mmHg 87%
    10:00 +8°C° 0.2 mm 2 mps 724 mmHg 85%
    11:00 +9°C° 0.2 mm 2 mps 724 mmHg 83%
    12:00 +9°C° 0.2 mm 3 mps 723 mmHg 82%
    13:00 +10°C° 0.2 mm 3 mps 723 mmHg 81%
    14:00 +9°C° 0.1 mm 3 mps 723 mmHg 84%
    15:00 +8°C° 0.1 mm 2 mps 723 mmHg 86%
    16:00 +8°C° 0.1 mm 2 mps 723 mmHg 89%
    17:00 +8°C° 0.1 mm 2 mps 723 mmHg 90%
    18:00 +7°C° 0.1 mm 2 mps 723 mmHg 91%
    19:00 +7°C° 0.1 mm 2 mps 723 mmHg 92%
    20:00 +7°C° 0 mm 2 mps 723 mmHg 92%
    21:00 +7°C° 0 mm 2 mps 723 mmHg 92%
    22:00 +6°C° 0 mm 2 mps 723 mmHg 92%
    23:00 +6°C° 0 mm 2 mps 723 mmHg 91%

    Day after tomorrow, 16 December, Sunday

    Time Temperature Precipitation Wind Pressure Humidity
    00:00 +6°C° 0 mm 2 mps 723 mmHg 91%
    01:00 +7°C° 0 mm 1 mps 723 mmHg 90%
    02:00 +7°C° 0 mm 1 mps 722 mmHg 90%
    03:00 +7°C° 0 mm 1 mps 722 mmHg 90%
    04:00 +7°C° 0 mm 1 mps 722 mmHg 90%
    05:00 +7°C° 0.1 mm 1 mps 722 mmHg 90%
    06:00 +7°C° 0.1 mm 1 mps 723 mmHg 90%
    07:00 +7°C° 0.1 mm 1 mps 723 mmHg 89%
    08:00 +6°C° 0.5 mm 2 mps 723 mmHg 87%
    09:00 +6°C° 0.5 mm 2 mps 724 mmHg 85%
    10:00 +7°C° 0.5 mm 3 mps 724 mmHg 82%
    11:00 +5°C° 0.5 mm 3 mps 724 mmHg 82%
    12:00 +4°C° 0.5 mm 3 mps 724 mmHg 82%
    13:00 +4°C° 0.5 mm 3 mps 724 mmHg 82%
    14:00 +3°C° 0.2 mm 3 mps 725 mmHg 82%
    15:00 +3°C° 0.2 mm 3 mps 725 mmHg 82%
    16:00 +3°C° 0.2 mm 3 mps 725 mmHg 82%
    17:00 +3°C° 0.1 mm 2 mps 726 mmHg 83%
    18:00 +3°C° 0.1 mm 2 mps 727 mmHg 83%
    19:00 +3°C° 0.1 mm 2 mps 727 mmHg 84%
    20:00 +2°C° 0 mm 2 mps 728 mmHg 84%
    21:00 +2°C° 0 mm 2 mps 728 mmHg 85%
    22:00 +3°C° 0 mm 1 mps 728 mmHg 85%
    23:00 +3°C° 0 mm 1 mps 728 mmHg 85%

    17 December, Monday

    Time Temperature Precipitation Wind Pressure Humidity
    00:00 +3°C° 0 mm 1 mps 728 mmHg 86%
    01:00 +3°C° 0 mm 1 mps 728 mmHg 86%
    02:00 +3°C° 0 mm 1 mps 727 mmHg 86%
    03:00 +3°C° 0 mm 1 mps 727 mmHg 86%
    04:00 +3°C° 0 mm 1 mps 727 mmHg 86%
    05:00 +3°C° 0 mm 1 mps 727 mmHg 85%
    06:00 +3°C° 0 mm 0 mps 727 mmHg 85%
    07:00 +3°C° 0 mm 0 mps 727 mmHg 85%
    08:00 +4°C° 0 mm 0 mps 727 mmHg 82%
    09:00 +6°C° 0 mm 1 mps 727 mmHg 79%
    10:00 +8°C° 0 mm 1 mps 727 mmHg 76%
    11:00 +8°C° 0.2 mm 1 mps 727 mmHg 77%
    12:00 +8°C° 0.2 mm 1 mps 727 mmHg 79%
    13:00 +8°C° 0.2 mm 1 mps 726 mmHg 80%
    14:00 +7°C° 0.3 mm 1 mps 726 mmHg 83%
    15:00 +7°C° 0.3 mm 1 mps 726 mmHg 86%
    16:00 +6°C° 0.3 mm 1 mps 726 mmHg 89%
    17:00 +6°C° 0 mm 1 mps 726 mmHg 90%
    18:00 +6°C° 0 mm 1 mps 726 mmHg 91%
    19:00 +6°C° 0 mm 1 mps 727 mmHg 91%
    20:00 +6°C° 0 mm 1 mps 727 mmHg 92%
    21:00 +6°C° 0 mm 1 mps 727 mmHg 92%
    22:00 +6°C° 0 mm 1 mps 727 mmHg 92%
    23:00 +6°C° 0.2 mm 1 mps 727 mmHg 92%

    18 December, Tuesday

    Time Temperature Precipitation Wind Pressure Humidity
    00:00 +6°C° 0.2 mm 1 mps 727 mmHg 93%
    01:00 +6°C° 0.2 mm 1 mps 726 mmHg 93%
    02:00 +6°C° 0.4 mm 1 mps 726 mmHg 93%
    03:00 +6°C° 0.4 mm 1 mps 726 mmHg 93%
    04:00 +6°C° 0.4 mm 1 mps 726 mmHg 93%
    05:00 +6°C° 0.8 mm 1 mps 726 mmHg 92%
    06:00 +6°C° 0.8 mm 1 mps 726 mmHg 91%
    07:00 +5°C° 0.8 mm 2 mps 726 mmHg 91%
    08:00 +5°C° 0.7 mm 2 mps 727 mmHg 89%
    09:00 +6°C° 0.7 mm 2 mps 727 mmHg 88%
    10:00 +6°C° 0.7 mm 2 mps 727 mmHg 86%
    11:00 +6°C° 0.3 mm 2 mps 727 mmHg 85%
    12:00 +6°C° 0.3 mm 2 mps 727 mmHg 83%
    13:00 +5°C° 0.3 mm 3 mps 727 mmHg 82%
    14:00 +5°C° 0.2 mm 3 mps 728 mmHg 83%
    15:00 +4°C° 0.2 mm 3 mps 728 mmHg 84%
    16:00 +4°C° 0.2 mm 3 mps 728 mmHg 85%
    17:00 +3°C° 0.1 mm 3 mps 729 mmHg 85%
    18:00 +3°C° 0.1 mm 3 mps 729 mmHg 86%
    19:00 +2°C° 0.1 mm 3 mps 730 mmHg 86%
    20:00 +3°C° 0 mm 2 mps 730 mmHg 87%
    21:00 +3°C° 0 mm 2 mps 730 mmHg 87%
    22:00 +2°C° 0 mm 2 mps 730 mmHg 87%
    23:00 +2°C° 0 mm 2 mps 730 mmHg 88%

    19 December, Wednesday

    Time Temperature Precipitation Wind Pressure Humidity
    00:00 +2°C° 0 mm 2 mps 730 mmHg 88%
    01:00 +2°C° 0 mm 2 mps 730 mmHg 89%
    02:00 +1°C° 0 mm 2 mps 730 mmHg 88%
    03:00 +1°C° 0 mm 2 mps 730 mmHg 88%
    04:00 +1°C° 0 mm 2 mps 731 mmHg 88%
    05:00 +1°C° 0 mm 2 mps 731 mmHg 88%
    06:00 +1°C° 0 mm 2 mps 731 mmHg 88%
    07:00 +1°C° 0 mm 2 mps 731 mmHg 87%
    08:00 +2°C° 0 mm 2 mps 731 mmHg 82%
    09:00 +4°C° 0 mm 2 mps 731 mmHg 77%
    10:00 +5°C° 0 mm 2 mps 731 mmHg 73%
    11:00 +6°C° 0 mm 2 mps 731 mmHg 71%
    12:00 +7°C° 0 mm 2 mps 730 mmHg 69%
    13:00 +8°C° 0 mm 1 mps 730 mmHg 67%
    14:00 +7°C° 0 mm 1 mps 730 mmHg 71%
    15:00 +6°C° 0 mm 1 mps 730 mmHg 76%
    16:00 +5°C° 0 mm 1 mps 730 mmHg 80%
    17:00 +5°C° 0 mm 1 mps 730 mmHg 81%
    18:00 +4°C° 0 mm 1 mps 730 mmHg 82%
    19:00 +4°C° 0 mm 1 mps 730 mmHg 83%
    20:00 +4°C° 0 mm 1 mps 730 mmHg 82%
    21:00 +4°C° 0 mm 1 mps 730 mmHg 82%
    22:00 +4°C° 0 mm 1 mps 730 mmHg 82%
    23:00 +3°C° 0 mm 1 mps 730 mmHg 82%
    Show more